Content
SEND FEEDBACK

Daily
Averages
Monthly
Summary
United States of America

MARSHALL, OKLAHOMA


Home > North America > United States > Oklahoma
Elevation: 1050 feet     Latitude: 36 09N     Longitude: 097 38W

WEATHER
 
SELECT A DAY
Number of Records: 31,936;   Date Range: 9/1/12 - 12/18/14
 
SHARE

PRINT THIS DATA

[ ← Previous Day ]
WEATHER ALMANAC - JANUARY 31, 2013
[ Next Day → ]
[ °C ]   °F
Weather ElementAverageHighLow
Temperature30.4 °F50 °F (10:50 am)21.2 °F (11:55 pm)
Dewpoint20.1 °F28.4 °F (12:50 pm)12.2 °F (10:15 pm)
Humidity66.8 %86 % (1:35 am)37 % (10:50 am)
Barometer30.19 in30.44 in (8:55 pm)29.99 in (3:15 am)
Wind Speed9.1 mph21.9 mph (1:55 pm)
Wind Gust28.8 mph (1:55 pm)
Weather ElementAverage
Visibility10 mi
Wind DirectionSE (129.7 °)

Weather ElementTotal
Precipitation---
Heating Degree Days29.4 (Base 65)
Averaged from 39 records on January 31, 2013
WEATHER CONDITIONS BREAKOUT
WIND DIRECTION BREAKOUT
WEATHER BY HOUR - JANUARY 31, 2013
[ °C ]   °F
Local TimeTemperatureDewpointHumidityBarometerVisibilityWind DirectionWind SpeedGust SpeedPrecipitationEventsConditions
12:35 AM28.4 °F23.0 °F80 %30.00 in10.0 miSSW (200°)5.8 mphClear
12:55 AM28.4 °F23.0 °F80 %30.01 in10.0 miSouth (190°)6.9 mphClear
1:15 AM28.4 °F23.0 °F80 %30.01 in10.0 miSSW (200°)5.8 mphClear
1:35 AM26.6 °F23.0 °F86 %30.01 in10.0 miSSW (200°)3.5 mphClear
1:55 AM28.4 °F23.0 °F80 %30.01 in10.0 miSW (230°)3.5 mphClear
2:15 AM26.6 °F21.2 °F80 %30.00 in10.0 miWSW (240°)4.6 mphClear
2:35 AM32.0 °F24.8 °F75 %30.00 in10.0 miWest (270°)4.6 mphClear
2:55 AM32.0 °F23.0 °F69 %30.00 in10.0 miWest (260°)4.6 mphClear
3:15 AM32.0 °F23.0 °F69 %29.99 in10.0 miWest (270°)4.6 mphClear
3:35 AM32.0 °F23.0 °F69 %29.99 in10.0 miCalmClear
3:55 AM32.0 °F21.2 °F64 %29.99 in10.0 miSW (220°)5.8 mphClear
4:15 AM28.4 °F21.2 °F74 %29.99 in10.0 miSSW (210°)5.8 mphClear
4:35 AM26.6 °F21.2 °F80 %29.99 in10.0 miWSW (250°)3.5 mphClear
4:55 AM28.4 °F23.0 °F80 %29.99 in10.0 miWSW (240°)3.5 mphClear
6:15 AM26.6 °F23.0 °F86 %30.00 in10.0 miWest (260°)5.8 mphClear
6:50 AM26.6 °F23.0 °F86 %30.01 in10.0 miCalmClear
7:50 AM26.6 °F23.0 °F86 %30.02 in10.0 miSouth (180°)9.2 mphScattered Clouds
9:50 AM41.0 °F26.6 °F57 %30.10 in10.0 miNorth (360°)13.8 mphScattered Clouds
10:50 AM50.0 °F24.8 °F37 %30.11 in10.0 miNorth (360°)11.5 mphScattered Clouds
11:50 AM48.2 °F26.6 °F43 %30.10 in10.0 miNNE (20°)18.4 mph25.3 mphScattered Clouds
12:50 PM48.2 °F28.4 °F46 %30.14 in10.0 miNorth (360°)20.7 mph27.6 mphScattered Clouds
1:55 PM48.2 °F28.4 °F46 %30.16 in10.0 miNNE (30°)21.9 mph28.8 mphPartly Cloudy
2:50 PM44.6 °F26.6 °F49 %30.19 in10.0 miNNE (20°)19.6 mph28.8 mphPartly Cloudy
3:50 PM39.2 °F26.6 °F61 %30.23 in10.0 miNNE (30°)21.9 mph28.8 mphPartly Cloudy
6:50 PM28.4 °F15.8 °F59 %30.38 in10.0 miNNE (20°)17.3 mphPartly Cloudy
7:50 PM26.6 °F15.8 °F64 %30.43 in10.0 miNNE (20°)9.2 mphPartly Cloudy
8:15 PM26.6 °F15.8 °F64 %30.42 in10.0 miNNE (20°)8.1 mphClear
8:35 PM26.6 °F14.0 °F59 %30.43 in10.0 miNNE (20°)9.2 mphClear
8:50 PM24.8 °F14.0 °F64 %30.43 in10.0 miNNE (30°)13.8 mphPartly Cloudy
8:55 PM26.6 °F14.0 °F59 %30.44 in10.0 miNNE (20°)9.2 mphClear
9:15 PM26.6 °F14.0 °F59 %30.43 in10.0 miNNE (20°)10.4 mphClear
9:35 PM26.6 °F14.0 °F59 %30.43 in10.0 miNNE (20°)11.5 mphClear
9:55 PM26.6 °F14.0 °F59 %30.42 in10.0 miNNE (30°)13.8 mphScattered Clouds
10:15 PM24.8 °F12.2 °F59 %30.43 in10.0 miNNE (30°)8.1 mphClear
10:35 PM23.0 °F14.0 °F68 %30.42 in10.0 miNE (40°)6.9 mphClear
10:55 PM23.0 °F14.0 °F68 %30.42 in10.0 miNE (40°)10.4 mphClear
11:15 PM23.0 °F12.2 °F63 %30.42 in10.0 miNE (50°)8.1 mphClear
11:35 PM23.0 °F12.2 °F63 %30.41 in10.0 miNE (50°)6.9 mphClear
11:55 PM21.2 °F14.0 °F74 %30.39 in10.0 miNE (50°)8.1 mphClear
Hourly data recorded from KWDG, located miles away from Marshall, Oklahoma







STORIES FROM OUR PARTNERS